GFSCGP_850_spd_288.txt.gz
Wind_Speed
5 7 8 4 3 3 1 1 1 4 7 9 8 11 14 19 16 18 18 18 17 16 15 14 12 12 11 12 15 18 21 19 17 15 11 9 8 7 7 7 10 8 8 7
8 10 4 2 3 8 9 7 5 5 9 10 10 9 13 18 16 17 19 19 19 18 17 15 14 13 13 13 14 18 21 22 19 13 13 10 7 6 8 9 9 10 10 10
12 8 4 4 7 9 10 9 4 1 10 4 8 10 12 15 16 14 15 17 18 19 18 16 15 15 15 16 17 16 17 20 20 18 13 13 12 9 7 7 7 8 11 11
7 1 5 8 6 9 7 1 6 8 12 5 10 4 12 14 14 16 15 15 16 18 17 16 14 15 17 17 16 18 18 19 17 19 17 14 13 9 8 7 8 9 11 13
7 7 7 11 3 3 6 2 4 6 8 4 9 8 9 8 12 15 16 15 15 16 17 17 16 14 12 13 14 15 17 19 19 20 17 16 17 11 8 8 10 11 13 14
2 2 4 1 3 4 11 9 6 4 7 9 7 7 11 7 5 3 10 19 18 17 13 11 10 11 11 11 14 12 13 14 17 20 20 19 18 16 16 14 15 13 12 12
8 7 2 6 7 7 9 11 8 9 9 10 6 6 11 7 3 4 7 14 21 17 13 10 8 7 6 7 6 11 8 7 8 10 11 15 16 17 20 20 19 15 16 15
13 10 10 3 7 8 13 12 11 11 10 8 5 6 7 5 3 3 9 18 21 20 12 9 7 8 8 7 6 8 7 5 6 6 8 13 12 12 13 15 15 16 17 16
11 9 7 4 4 2 7 9 6 12 6 11 11 7 5 5 6 5 6 15 17 19 14 13 13 15 16 15 11 8 8 8 4 8 9 8 7 10 7 9 10 8 9 9
7 9 6 6 6 5 6 7 6 8 14 13 8 5 2 7 5 9 12 13 12 15 16 17 18 17 16 16 17 15 13 12 10 6 2 2 0 2 5 9 11 11 12 14
8 12 11 7 9 8 6 8 5 6 4 10 9 3 5 5 5 10 11 13 13 19 20 20 16 15 14 15 18 14 10 11 7 2 3 4 7 8 10 14 17 19 21 22
11 9 10 11 6 2 4 5 8 8 11 8 9 2 6 8 12 13 12 13 15 15 16 17 16 13 9 9 8 5 4 3 3 7 10 12 14 16 18 19 20 22 25 26
9 8 7 7 8 5 8 4 6 6 7 9 9 4 8 10 15 14 15 14 16 19 19 17 15 11 11 8 5 5 9 10 12 16 18 19 20 19 19 21 23 26 29 30
4 4 9 5 2 7 8 8 5 10 9 10 10 11 12 13 15 17 16 16 15 15 14 12 10 9 7 7 7 5 8 11 15 18 19 23 22 24 27 29 30 30 29 30
5 4 2 5 6 4 3 5 5 10 11 10 6 4 14 14 15 18 17 15 13 12 11 10 9 9 10 9 10 10 11 14 18 21 23 24 28 30 30 29 30 31 31 30
4 4 8 7 4 5 4 3 3 4 5 6 7 4 15 17 17 17 15 12 10 10 9 9 9 9 9 9 10 11 12 16 18 20 19 22 26 28 29 30 31 32 33 32
3 8 6 5 2 3 7 4 6 4 5 7 8 8 18 16 18 16 13 9 8 7 7 7 7 7 7 9 11 13 17 20 22 23 26 29 30 32 32 32 32 32 34 35
10 7 0 5 5 9 6 1 3 5 3 4 1 8 16 18 15 12 8 7 6 5 5 5 5 5 6 8 11 15 19 22 22 22 24 26 30 33 33 39 39 40 38 39
7 3 3 4 6 3 4 4 5 5 4 2 5 12 16 15 11 9 8 6 5 5 4 4 3 3 7 9 13 18 19 20 20 21 23 24 28 28 34 38 36 40 41 43
9 6 2 1 5 6 7 8 4 2 6 9 11 14 16 15 9 8 12 7 5 5 3 2 1 4 7 11 14 14 14 15 16 18 19 23 35 35 34 42 40 43 44 47
2 2 6 5 5 1 3 10 4 6 6 13 12 13 14 10 4 10 9 6 5 5 3 2 3 4 7 10 12 13 14 16 18 20 22 25 34 42 43 41 41 46 46 47
7 4 4 2 4 4 10 9 6 5 6 9 11 11 12 7 7 7 6 6 5 4 3 4 5 6 9 11 12 16 19 19 20 23 25 26 34 37 37 42 48 46 46 47
4 3 2 3 4 3 12 2 4 4 4 4 8 10 11 11 8 7 5 4 4 4 5 5 6 9 11 12 13 17 20 21 22 24 25 25 34 33 37 40 50 47 45 47
3 2 3 3 5 4 10 6 3 3 3 3 6 9 10 10 8 6 4 3 4 5 5 5 8 11 14 14 17 18 20 21 24 24 23 26 29 32 33 40 45 50 49 49
3 8 5 2 5 3 7 10 6 6 5 4 6 9 10 10 7 5 3 4 6 7 7 8 10 13 15 18 19 20 19 20 24 22 21 25 27 30 29 43 43 49 45 49
9 4 5 3 6 4 7 3 6 7 7 7 9 10 10 10 8 6 4 5 6 6 6 8 12 14 17 19 21 23 18 21 22 19 19 23 27 29 29 32 39 44 40 48

GFSCGP_850_spd_294.txt.gz
Wind_Speed
19 11 13 13 10 12 10 22 16 20 8 17 20 18 19 22 24 21 19 21 19 21 18 16 18 18 16 19 20 22 20 21 17 11 11 9 8 8 7 10 6 6 9 9
12 12 8 11 18 8 13 12 9 15 14 18 7 13 9 18 21 21 23 19 22 24 21 20 17 18 19 20 23 23 24 20 20 15 13 10 3 8 3 4 12 10 7 12
14 7 4 6 12 15 12 11 8 14 16 18 12 7 19 14 18 18 24 24 21 26 25 23 21 20 22 23 23 24 24 21 20 14 11 11 13 8 7 3 11 14 11 16
12 16 4 11 12 11 15 8 7 13 12 6 2 4 11 10 7 17 17 20 28 26 28 25 24 22 26 23 22 20 22 20 16 18 14 10 8 5 3 11 14 7 13 14
18 14 10 11 14 9 16 5 10 13 13 23 19 4 10 10 9 16 23 23 22 30 26 27 26 26 24 24 24 20 19 23 18 13 15 11 11 7 9 12 12 18 8 10
17 13 5 10 15 5 14 7 11 13 14 12 15 13 12 13 13 12 18 26 25 26 29 28 26 25 23 23 18 25 22 17 18 15 11 16 11 8 9 10 12 14 18 7
18 18 10 12 16 10 11 12 8 7 10 10 14 13 11 20 23 19 28 28 24 23 20 25 22 22 20 17 14 14 17 14 14 12 14 12 10 8 8 7 6 12 15 15
14 15 21 13 15 15 12 15 13 13 11 5 15 7 13 18 30 32 8 28 25 21 22 20 25 29 18 14 9 17 20 17 22 18 12 8 7 1 3 5 5 8 12 11
16 18 15 22 14 17 18 13 17 22 20 14 10 10 10 12 10 9 9 21 24 17 23 21 26 23 20 19 13 19 18 19 16 14 11 7 6 1 3 3 3 3 5 7
16 15 14 10 4 13 17 16 9 10 17 14 9 13 7 16 11 19 23 24 27 26 26 30 26 27 23 14 11 11 11 12 12 10 6 3 5 3 2 0 3 5 11 14
12 15 18 11 8 13 10 11 17 15 12 10 12 4 15 18 15 18 21 22 25 26 24 24 24 23 26 20 17 11 9 6 5 5 5 3 2 1 3 8 9 11 17 19
10 13 13 16 17 17 17 17 15 12 17 14 13 4 12 18 18 22 19 18 20 22 24 20 20 20 18 18 11 8 9 10 9 8 5 5 5 6 9 14 18 20 22 24
4 10 13 16 7 6 11 16 14 14 10 13 10 7 17 23 17 16 18 17 22 24 22 19 18 14 13 10 8 10 8 3 3 5 8 8 9 20 24 26 22 23 24 26
1 11 14 13 6 10 7 17 18 15 11 13 12 18 15 15 17 17 14 14 16 18 19 17 16 12 11 8 5 2 3 4 9 13 13 17 11 13 15 16 18 20 24 27
7 13 18 16 4 6 5 8 17 9 12 10 4 12 21 18 13 17 16 17 16 16 18 16 14 12 8 6 5 4 4 3 1 2 6 9 6 8 11 14 17 23 28 31
13 12 16 11 4 8 7 8 5 8 8 8 12 15 17 28 25 22 19 18 18 17 17 17 14 12 10 8 6 5 2 2 1 2 3 3 5 8 11 15 19 24 27 31
17 13 11 8 2 11 9 7 4 11 1 5 3 15 17 16 24 22 22 19 18 17 16 15 13 11 9 7 6 3 2 1 0 1 4 5 8 10 11 13 16 20 28 33
11 2 4 3 12 4 10 12 11 9 6 8 7 5 18 19 19 16 18 19 14 15 14 12 11 10 9 7 6 4 3 2 3 4 6 7 9 10 14 16 20 25 27 34
4 4 5 5 19 5 18 15 16 11 11 9 5 4 12 10 23 15 13 16 13 13 13 12 11 11 10 7 5 4 4 6 6 7 9 12 14 15 17 20 25 28 26 34
12 5 9 6 10 1 6 11 8 6 5 9 6 3 6 5 8 7 17 16 15 11 10 10 9 8 7 7 6 6 6 8 9 11 14 16 18 21 22 21 23 28 27 27
2 4 6 6 4 4 3 10 4 7 5 6 8 8 8 7 12 17 16 14 14 12 11 10 9 8 8 8 6 8 8 9 11 14 16 17 19 22 23 22 21 27 25 28
2 3 5 6 6 4 22 17 4 7 8 7 7 8 13 15 15 13 12 11 11 9 9 9 7 7 8 8 9 10 11 12 14 16 17 19 22 21 20 22 23 23 23 27
1 5 6 6 5 12 25 10 8 5 4 4 3 3 4 17 15 13 13 11 8 8 7 7 7 8 9 10 10 11 12 14 17 19 19 20 23 22 22 24 20 18 20 29
13 11 1 5 9 18 9 7 4 1 2 2 1 3 4 7 7 16 14 12 8 8 8 8 9 10 10 10 11 12 14 16 18 20 20 20 21 23 22 17 19 17 29 27
10 5 1 2 9 6 7 8 7 6 1 2 3 4 6 5 3 9 10 8 7 8 9 9 10 11 10 10 11 13 14 17 18 18 18 20 25 19 22 18 18 24 29 31
13 6 3 5 11 1 10 6 2 2 2 4 5 6 6 5 4 7 5 6 8 8 8 9 9 9 10 11 12 14 15 16 18 18 17 18 16 23 23 23 29 28 32 36

GFSCGP_850_spd_300.txt.gz
Wind_Speed
11 4 6 12 9 4 9 5 8 11 6 7 13 15 17 24 26 22 23 33 36 33 30 28 27 28 24 25 26 22 18 19 18 24 21 15 14 11 9 5 9 11 7 8
2 8 12 16 8 2 11 7 2 7 3 3 7 7 3 6 19 27 27 29 38 36 33 31 27 25 26 27 26 21 23 22 16 19 17 14 12 12 10 6 9 10 12 10
6 12 14 15 10 7 5 12 10 9 6 4 1 7 6 7 15 28 32 36 37 37 36 33 29 26 26 25 28 25 25 22 18 14 18 14 10 9 11 11 14 14 13 15
8 8 9 13 11 10 5 15 15 22 13 4 9 4 8 7 7 14 30 32 39 36 35 34 32 30 26 25 28 29 28 23 22 17 21 16 12 14 13 11 10 11 9 10
11 3 9 13 9 19 11 21 23 17 7 6 8 1 7 9 8 10 24 31 38 42 40 38 36 32 26 24 29 27 29 25 22 15 20 17 14 13 12 12 7 4 8 10
9 6 4 4 3 24 1 18 13 6 4 1 16 8 5 7 16 11 13 28 36 40 43 38 34 31 28 25 27 30 31 27 25 21 22 16 12 12 12 12 12 8 11 11
7 8 6 5 4 5 5 6 2 3 1 6 13 4 14 8 8 9 12 28 33 38 44 43 39 38 35 33 30 30 31 30 25 22 22 21 17 17 14 13 11 10 9 9
4 9 2 1 5 9 6 9 6 6 5 2 4 6 7 9 15 19 17 16 24 27 31 36 39 38 37 36 35 34 32 29 27 23 20 19 16 13 12 10 8 5 6 5
6 6 6 4 6 10 7 3 8 4 1 4 5 4 4 3 9 18 21 19 16 14 25 29 30 31 36 38 36 33 33 27 26 25 23 20 19 17 13 11 9 8 7 6
9 3 7 9 4 4 9 5 1 3 1 3 5 3 4 3 7 12 16 24 24 26 25 22 25 28 33 35 34 34 35 32 28 21 20 20 18 15 11 8 7 6 7 8
4 5 9 2 2 3 4 2 3 5 5 5 3 3 6 13 14 16 18 21 24 26 30 29 29 29 29 30 30 29 25 26 24 21 20 17 13 9 7 6 6 6 8 9
4 6 5 9 4 6 7 7 5 5 5 3 5 2 5 16 22 28 26 24 24 25 23 25 26 26 25 23 21 21 18 18 18 15 12 11 11 10 8 6 8 9 10 11
3 3 3 8 7 8 4 5 4 4 4 4 6 4 5 14 24 27 27 16 14 22 21 20 17 15 13 11 11 11 12 10 11 12 12 9 8 8 7 6 4 4 5 7
1 4 5 6 6 3 6 9 3 5 3 4 4 10 12 11 16 17 21 27 26 21 18 16 15 12 9 7 8 9 10 11 11 11 9 6 4 2 3 4 4 5 7 10
4 2 3 1 2 10 10 11 11 8 1 4 12 14 17 11 14 21 25 24 23 22 17 13 9 9 9 9 10 10 10 9 9 9 8 6 4 4 3 4 4 6 9 12
7 2 4 5 8 18 15 20 15 9 7 13 15 8 7 17 17 19 23 26 25 22 18 15 14 13 12 11 10 7 6 6 4 4 4 3 2 4 6 7 8 9 10 13
4 3 4 4 6 2 10 10 12 9 9 6 6 7 16 11 16 21 23 23 22 21 19 18 17 16 13 12 8 5 4 5 5 4 4 5 7 9 10 11 11 11 10 12
4 3 2 1 7 5 6 5 8 18 11 12 15 15 18 23 22 26 26 27 24 22 21 21 18 15 10 9 8 7 5 4 5 5 5 9 11 13 14 13 13 14 14 14
5 4 4 4 3 3 1 4 3 5 6 7 6 6 15 16 18 17 24 26 27 25 21 18 14 11 11 9 7 7 9 8 7 8 8 10 13 16 16 15 14 15 14 15
6 7 5 2 5 5 6 4 9 6 3 11 15 13 14 20 5 5 26 26 23 19 19 18 14 10 9 9 9 8 8 10 10 9 9 10 15 15 15 16 15 15 16 19
5 4 5 4 2 5 6 7 7 3 6 18 23 22 22 8 7 20 25 27 27 25 21 13 9 7 5 7 7 7 8 9 9 7 10 13 16 18 19 19 16 17 20 22
3 2 1 2 3 5 3 4 7 6 21 20 18 20 24 12 19 26 29 29 25 20 15 10 8 7 6 7 9 11 12 10 8 10 13 17 20 21 20 18 16 19 20 22
2 5 4 5 5 4 3 2 14 14 17 18 17 18 15 25 26 28 28 26 22 14 10 8 8 10 9 10 13 15 14 12 12 14 18 21 24 24 21 17 18 16 22 18
2 4 2 2 3 5 7 20 20 20 20 15 13 13 13 17 24 25 23 21 18 14 10 6 7 8 9 13 16 16 13 12 16 18 20 22 22 20 18 19 18 20 20 25
4 5 4 2 2 7 10 17 18 17 15 14 14 14 12 14 22 24 24 24 19 12 9 10 10 12 12 12 13 14 14 15 17 20 21 19 18 16 16 15 17 21 22 27
8 6 4 5 13 8 16 16 13 11 9 7 7 9 8 8 15 27 28 23 18 14 14 13 13 13 14 15 14 13 14 16 20 21 22 21 20 18 16 18 19 21 25 27

GFSCGP_850_spd_303.txt.gz
Wind_Speed
10 3 6 11 7 1 12 12 10 5 5 1 6 2 17 25 22 21 25 27 31 31 33 31 32 30 31 29 28 27 23 22 22 21 24 18 14 11 10 11 10 10 10 10
1 8 14 10 7 5 6 8 1 3 2 3 2 10 14 20 26 28 24 27 33 37 34 33 33 30 31 31 31 30 25 20 20 21 26 20 17 14 9 8 9 12 13 12
7 11 6 10 6 6 4 7 9 4 5 2 0 6 6 8 18 21 25 32 31 36 38 33 33 32 32 32 33 32 27 23 20 21 22 21 18 18 17 14 13 13 15 16
5 11 10 9 4 6 6 12 12 11 8 4 5 4 7 12 8 13 25 28 36 37 38 36 36 33 32 31 31 32 27 25 23 20 22 22 19 16 13 13 11 11 10 11
8 5 5 4 6 13 10 9 5 7 4 3 2 1 6 7 16 19 22 29 37 43 39 38 37 32 26 27 28 32 28 27 24 20 18 22 18 15 13 13 12 10 8 10
7 5 4 7 4 19 8 11 9 4 3 3 8 6 6 6 26 21 19 31 36 43 43 40 36 33 28 27 26 29 29 30 26 24 21 21 20 18 15 13 12 11 12 12
5 4 4 6 2 6 9 8 3 2 1 6 2 7 12 5 6 25 22 26 33 38 42 42 39 36 32 30 28 29 31 30 27 26 22 24 21 18 15 14 14 11 13 10
4 9 6 5 6 8 13 9 6 7 5 3 5 6 5 10 5 13 16 20 27 34 35 40 39 35 34 32 29 30 31 33 30 28 24 25 24 21 19 19 17 13 11 8
6 7 3 4 4 8 4 6 6 7 2 3 4 5 3 13 13 19 19 17 14 20 25 26 30 32 34 36 33 31 32 33 31 28 22 21 22 18 15 12 9 10 9 8
3 4 5 3 3 1 7 5 2 3 4 4 5 4 4 3 8 11 15 17 17 15 17 24 27 29 30 34 34 33 34 34 25 18 16 16 15 13 11 12 9 6 7 9
4 7 10 3 3 7 0 2 5 5 5 6 3 5 4 7 10 11 15 19 18 17 14 11 16 29 32 29 26 28 25 19 17 17 13 11 12 12 11 11 12 11 9 9
2 4 7 14 4 5 2 2 6 5 4 1 3 4 6 8 14 21 19 22 21 16 12 6 2 13 18 17 12 16 21 21 18 19 17 15 13 12 13 9 10 9 8 7
4 0 2 7 6 5 5 3 4 4 3 6 6 4 7 12 14 19 25 25 23 22 15 5 11 13 14 13 15 14 14 13 12 12 10 8 7 5 4 6 5 3 3 2
4 3 5 6 4 2 3 6 3 4 4 5 5 8 12 13 10 10 13 18 15 19 24 22 15 12 10 10 10 11 11 10 10 10 9 5 4 4 4 4 3 3 3 3
4 3 3 4 9 8 6 6 7 3 1 4 6 7 14 14 12 13 11 17 20 19 19 17 16 12 11 10 10 10 10 9 7 7 6 3 2 1 1 1 2 3 4 7
2 3 4 6 5 12 7 11 6 4 5 5 7 4 8 8 11 12 14 19 18 16 16 16 13 10 9 9 9 8 7 6 4 3 2 2 2 1 3 4 5 6 7 8
3 4 3 5 2 3 7 8 8 2 4 5 4 5 9 7 12 16 19 18 17 18 17 13 10 9 9 8 7 6 5 3 3 3 3 2 2 4 6 8 9 9 10 11
3 3 3 3 1 3 7 3 3 6 4 6 10 7 9 13 11 17 18 19 18 18 14 12 11 10 8 7 5 4 3 3 3 4 4 5 6 8 10 12 11 11 12 12
4 5 4 4 3 2 4 6 3 2 2 6 11 10 11 12 7 8 17 18 15 15 14 14 11 8 4 3 3 3 4 6 7 7 8 9 9 10 12 12 12 13 13 11
5 7 4 3 5 7 8 5 6 1 4 15 9 14 19 20 5 4 22 18 15 14 15 15 14 10 7 7 6 5 5 7 9 9 8 8 8 11 14 16 17 16 14 15
4 4 3 1 2 4 4 5 8 5 7 12 15 23 24 8 7 9 21 20 20 18 18 16 12 7 6 7 7 6 6 6 7 6 6 9 11 14 18 19 20 19 17 19
3 4 1 2 3 3 5 6 6 5 5 9 11 21 28 17 12 8 23 24 25 24 21 17 13 12 10 8 9 8 8 7 8 8 10 12 15 18 20 22 22 19 18 20
1 5 4 6 5 4 3 4 7 10 12 9 8 9 14 20 9 15 27 26 26 23 20 17 14 9 9 10 11 11 10 10 12 14 13 15 18 18 20 20 21 18 20 20
2 3 2 2 2 2 3 11 10 12 11 10 12 16 19 16 17 20 24 27 26 24 19 13 11 10 12 12 12 15 15 16 14 14 16 17 19 17 17 17 17 17 19 21
4 5 4 2 2 6 9 15 16 14 11 10 10 10 9 10 16 20 25 27 24 21 16 12 10 10 11 12 13 12 13 13 14 15 17 19 19 18 17 17 16 16 19 21
8 6 4 5 15 9 18 18 17 15 12 10 10 10 9 9 11 17 19 21 22 20 15 13 13 14 13 13 13 12 12 13 15 17 18 19 20 19 20 18 18 20 24 22

GFSCGP_850_spd_306.txt.gz
Wind_Speed
4 4 3 5 4 2 5 5 4 2 3 3 3 5 11 20 20 18 24 26 28 32 30 29 29 30 29 29 29 28 25 23 22 22 20 19 17 15 15 14 12 13 12 10
4 5 11 8 7 3 5 2 4 2 3 4 3 4 7 17 25 27 28 31 34 34 33 31 31 33 34 32 31 29 27 25 25 24 22 22 20 18 17 15 13 15 14 13
6 8 3 6 8 7 5 8 6 1 3 3 5 6 5 12 21 24 25 29 31 36 36 35 32 33 32 35 34 31 29 26 22 22 23 25 22 19 18 15 11 11 13 13
5 7 6 7 5 7 6 5 5 6 4 0 4 4 5 7 16 18 27 26 33 35 35 36 36 34 33 33 33 32 29 28 24 23 24 28 25 23 20 15 15 14 14 13
6 2 1 4 6 10 4 11 7 8 5 2 1 2 7 3 13 19 26 29 33 34 34 34 35 34 31 31 31 31 30 30 26 23 24 26 24 21 19 17 17 16 14 14
6 6 3 4 3 12 11 12 9 5 3 3 6 7 6 5 8 7 23 32 36 37 36 34 35 33 30 29 30 30 30 31 29 28 24 23 24 24 20 17 15 13 12 13
3 5 4 4 7 4 5 5 3 3 1 6 2 3 9 6 10 10 15 29 37 40 37 36 38 38 33 29 27 27 28 32 29 29 30 26 23 24 20 18 14 17 16 14
3 7 5 5 9 10 8 7 5 7 5 4 4 6 6 1 9 10 10 28 26 31 34 36 39 37 34 29 29 27 29 32 31 33 30 28 24 24 22 19 18 17 11 6
3 6 5 5 3 10 6 4 3 6 3 2 4 7 3 2 8 14 17 12 13 17 20 22 20 25 31 32 30 27 25 34 32 33 31 27 25 23 20 14 10 9 8 5
7 5 4 5 3 1 7 6 2 2 5 5 5 4 5 2 2 4 8 11 15 15 17 19 21 23 25 27 27 29 28 33 31 28 23 20 18 14 13 10 9 8 6 4
5 3 8 2 5 8 2 2 2 5 4 5 3 6 2 3 4 5 6 10 12 14 14 15 16 16 13 9 16 21 15 10 12 3 8 11 16 15 15 13 12 12 8 7
2 5 5 11 0 1 4 3 4 5 4 1 3 6 2 6 8 8 6 11 10 8 9 7 6 6 8 9 8 6 16 12 23 13 24 21 22 14 12 12 13 12 11 3
5 1 3 10 6 1 4 2 3 4 3 6 5 6 4 9 10 8 11 10 11 15 18 19 20 16 13 7 5 21 23 20 22 17 15 14 12 11 10 7 6 6 3 4
6 4 6 7 6 2 2 4 2 3 4 4 6 4 9 10 9 8 7 9 11 10 10 9 10 12 14 13 13 13 12 11 12 11 10 8 6 5 4 4 4 5 5 3
5 4 3 2 2 3 2 3 3 2 2 4 3 7 8 10 9 9 9 9 11 13 14 13 12 11 9 9 9 9 7 8 8 7 5 4 3 3 3 3 3 4 4 4
3 1 2 3 4 6 4 6 2 3 2 2 3 2 3 13 14 10 8 12 15 16 14 9 6 4 4 7 9 9 9 8 8 7 7 7 6 5 3 1 2 3 4 4
3 5 3 4 4 4 3 3 1 2 2 5 4 5 9 7 11 13 12 16 16 14 11 10 6 7 9 10 10 9 8 7 7 6 5 5 3 2 2 4 5 5 6 7
4 5 2 2 3 2 5 4 2 2 2 1 0 10 11 11 8 13 17 17 12 11 12 11 11 12 12 12 9 7 6 4 4 4 4 3 3 2 4 7 7 7 9 10
3 5 4 4 2 5 5 3 3 0 4 1 4 7 7 13 12 7 16 15 14 12 9 9 12 13 12 11 9 6 3 0 2 3 4 5 6 5 6 7 9 11 13 12
5 7 4 2 4 7 7 2 6 3 4 6 10 10 16 14 4 4 14 15 10 9 13 15 15 10 7 6 4 2 1 2 2 3 5 5 5 6 7 9 11 13 15 14
3 4 4 2 2 5 4 3 5 5 6 1 14 19 20 6 3 2 7 13 12 12 14 14 9 5 3 2 4 3 3 3 5 4 3 4 7 10 12 14 16 19 19 17
4 4 2 2 2 3 3 3 6 5 1 8 11 16 19 9 4 3 11 18 17 15 15 12 10 7 6 6 6 6 7 4 5 7 8 10 11 13 14 16 18 19 19 18
1 4 3 6 5 4 5 5 8 5 6 8 9 13 13 16 8 5 10 17 19 18 15 13 11 8 9 9 9 10 8 7 10 13 14 14 15 15 14 16 18 18 17 17
2 3 1 2 2 3 4 7 7 8 7 7 6 6 8 12 12 10 11 17 19 18 17 14 12 12 11 11 11 12 12 14 17 19 16 15 17 15 16 17 18 19 18 17
3 5 3 3 4 1 3 8 10 9 8 8 7 5 6 9 7 10 12 16 18 19 17 15 14 11 7 10 13 15 16 17 17 16 15 16 17 17 19 17 17 16 16 17
8 6 4 5 12 6 12 15 14 13 11 9 7 5 6 5 5 4 7 10 14 19 20 18 14 11 10 14 16 16 15 14 14 16 16 16 16 18 17 19 19 17 19 19